Simultaneous Nadir Overpasses (SNOs) Predictions

Prediction of SNOs between GOES-16 and NOAA-20 Satellite Orbit:

Table of predicted SNOs for the next 14.0 days since TLE Epoch: 7/27/2024
Index Date Time (GOES-16) GOES-16 Lat,Lon NOAA-20 Lat,Lon Distance(km) Time Diff (sec)
1 07/27/2024 06:31:52 0.06, -75.20 0.35, -76.50 147.59 80
2 07/28/2024 06:10:28 0.05, -75.21 -0.67, -71.97 368.88 80
3 07/29/2024 18:35:05 -0.05, -75.21 -0.49, -77.28 235.66 80
4 07/30/2024 18:13:41 -0.04, -75.22 0.53, -72.76 281.02 80
5 08/01/2024 06:38:08 0.04, -75.23 0.64, -78.03 318.60 80
6 08/02/2024 06:16:43 0.03, -75.24 -0.33, -73.49 198.45 80
7 08/03/2024 18:38:40 -0.03, -75.25 -0.82, -78.81 404.95 80
8 08/04/2024 18:22:35 -0.03, -75.27 0.21, -74.28 112.80 80
9 08/06/2024 06:44:23 0.02, -75.30 0.96, -79.56 485.13 80
10 08/07/2024 06:22:57 0.02, -75.31 -0.02, -75.02 33.25 80
11 08/09/2024 18:26:09 -0.02, -75.37 -0.14, -75.80 49.95 80
